TimeAKDT,TemperatureF,Dew PointF,Humidity,Sea Level PressureIn,VisibilityMPH,Wind Direction,Wind SpeedMPH,Gust SpeedMPH,PrecipitationIn,Events,Conditions,WindDirDegrees,DateUTC
12:53 AM,30.0,12.0,47,29.92,10.0,North,12.7,-,N/A,,Clear,350,2013-04-28 08:53:00
1:53 AM,30.0,12.0,47,29.93,10.0,North,10.4,-,N/A,,Clear,350,2013-04-28 09:53:00
2:53 AM,28.9,10.0,45,29.95,10.0,North,12.7,-,N/A,,Clear,350,2013-04-28 10:53:00
3:53 AM,28.9,9.0,43,29.96,10.0,North,12.7,-,N/A,,Clear,350,2013-04-28 11:53:00
4:53 AM,27.0,9.0,47,29.97,10.0,NNW,11.5,-,N/A,,Clear,340,2013-04-28 12:53:00
5:53 AM,27.0,9.0,47,29.98,10.0,NNW,10.4,-,N/A,,Clear,340,2013-04-28 13:53:00
6:53 AM,27.0,7.0,43,29.99,10.0,North,11.5,-,N/A,,Clear,360,2013-04-28 14:53:00
7:53 AM,28.9,8.1,41,30.01,10.0,North,9.2,-,N/A,,Clear,360,2013-04-28 15:53:00
8:53 AM,30.9,8.1,38,30.02,10.0,North,10.4,-,N/A,,Clear,10,2013-04-28 16:53:00
9:53 AM,33.1,9.0,37,30.03,10.0,North,12.7,-,N/A,,Clear,10,2013-04-28 17:53:00
10:53 AM,35.1,9.0,34,30.04,10.0,North,9.2,-,N/A,,Clear,10,2013-04-28 18:53:00
11:53 AM,36.0,9.0,33,30.06,10.0,NE,9.2,-,N/A,,Clear,40,2013-04-28 19:53:00
12:53 PM,37.0,10.0,33,30.06,10.0,NNE,9.2,-,N/A,,Clear,30,2013-04-28 20:53:00
1:53 PM,39.0,10.9,32,30.06,10.0,NE,10.4,-,N/A,,Clear,40,2013-04-28 21:53:00
2:53 PM,41.0,10.9,29,30.07,10.0,North,3.5,-,N/A,,Clear,10,2013-04-28 22:53:00
3:53 PM,41.0,10.0,28,30.07,10.0,Variable,3.5,-,N/A,,Clear,0,2013-04-28 23:53:00
4:53 PM,43.0,15.1,32,30.07,10.0,North,9.2,-,N/A,,Clear,350,2013-04-29 00:53:00
5:53 PM,41.0,17.1,38,30.07,10.0,NNW,6.9,-,N/A,,Clear,340,2013-04-29 01:53:00
6:53 PM,41.0,15.1,35,30.09,10.0,NNW,4.6,-,N/A,,Clear,340,2013-04-29 02:53:00
7:53 PM,41.0,16.0,36,30.10,10.0,NNW,9.2,-,N/A,,Clear,330,2013-04-29 03:53:00
8:53 PM,39.9,18.0,41,30.12,10.0,North,5.8,-,N/A,,Clear,350,2013-04-29 04:53:00
9:53 PM,36.0,21.0,55,30.13,10.0,WNW,5.8,-,N/A,,Clear,290,2013-04-29 05:53:00
10:53 PM,35.1,21.9,59,30.14,10.0,West,3.5,-,N/A,,Clear,280,2013-04-29 06:53:00
11:53 PM,33.1,21.0,61,30.15,10.0,Calm,Calm,-,N/A,,Clear,0,2013-04-29 07:53:00